Content
SEND FEEDBACK

Daily
Averages
Monthly
Summary
United Kingdom

LEAMOUTH, ENGLAND


Home > Europe > United Kingdom > England
Elevation: 23 feet     Latitude: 51 30N     Longitude: 000 00E

WEATHER
 
SELECT A DAY
Number of Records: 209,869;   Date Range: 7/1/96 - 8/18/14
 
SHARE

PRINT THIS DATA

[ ← Previous Day ]
WEATHER ALMANAC - SEPTEMBER 8, 2013
[ Next Day → ]
[ °C ]   °F
Weather ElementAverageHighLow
Temperature57 °F62.6 °F (10:50 am)53.6 °F (2:50 am)
Dewpoint47.4 °F50 °F (4:20 am)42.8 °F (12:20 pm)
Humidity71 %88 % (4:20 am)48 % (12:20 pm)
Barometer30.06 in30.06 in (1:50 am)30.04 in (12:50 am)
Wind Speed7.9 mph16.1 mph (1:20 pm)
Weather ElementAverage
Visibility6.2 mi
Wind DirectionSSW (197.4 °)

Weather ElementTotal
Precipitation---
Heating Degree Days6.9 (Base 65)
Growing Degree Days8.1 (Base 50)
Averaged from 47 records on September 8, 2013
WEATHER CONDITIONS BREAKOUT
WIND DIRECTION BREAKOUT
WEATHER BY HOUR - SEPTEMBER 8, 2013
[ °C ]   °F
Local TimeTemperatureDewpointHumidityBarometerVisibilityWind DirectionWind SpeedGust SpeedPrecipitationEventsConditions
12:50 AM57.2 °F48.2 °F72 %30.04 in6.2 miSSW (200°)4.6 mph
1:20 AM55.4 °F48.2 °F77 %30.04 in6.2 miSSW (200°)4.6 mph
1:50 AM55.4 °F48.2 °F77 %30.06 in6.2 miVariable2.3 mph
2:20 AM55.4 °F48.2 °F77 %30.06 in6.2 miVariable3.5 mph
2:50 AM53.6 °F48.2 °F82 %30.06 in6.2 miSSE (150°)5.8 mph
3:20 AM55.4 °F48.2 °F77 %30.06 in6.2 miSSW (200°)6.9 mph
3:50 AM55.4 °F48.2 °F77 %30.06 in6.2 miSW (220°)3.5 mphPartly Cloudy
4:20 AM53.6 °F50.0 °F88 %30.06 in6.2 miVariable3.5 mph
4:50 AM53.6 °F48.2 °F82 %30.06 in6.2 miVariable3.5 mph
5:20 AM53.6 °F48.2 °F82 %30.06 in6.2 miSW (230°)4.6 mph
5:50 AM53.6 °F48.2 °F82 %30.06 in6.2 miSW (220°)5.8 mph
6:20 AM53.6 °F48.2 °F82 %30.06 in6.2 miVariable2.3 mph
6:50 AM53.6 °F48.2 °F82 %30.06 in6.2 miWest (270°)3.5 mph
7:20 AM55.4 °F48.2 °F77 %30.06 in6.2 miSSW (210°)5.8 mphPartly Cloudy
7:50 AM55.4 °F48.2 °F77 %30.06 in6.2 miWSW (250°)4.6 mph
8:20 AM57.2 °F48.2 °F72 %30.06 in6.2 miVariable3.5 mph
8:50 AM59.0 °F48.2 °F67 %30.06 in6.2 miWSW (240°)4.6 mph
9:20 AM59.0 °F46.4 °F63 %30.06 in6.2 miWSW (250°)5.8 mph
9:50 AM60.8 °F44.6 °F55 %30.06 in6.2 miWest (260°)8.1 mph
10:20 AM60.8 °F44.6 °F55 %30.06 in6.2 miWSW (250°)6.9 mphPartly Cloudy
10:50 AM62.6 °F44.6 °F52 %30.06 in6.2 miWest (260°)5.8 mphScattered Clouds
11:20 AM62.6 °F46.4 °F55 %30.06 in6.2 miWest (260°)11.5 mphMostly Cloudy
11:50 AM62.6 °F44.6 °F52 %30.04 in6.2 miWSW (240°)12.7 mphMostly Cloudy
12:20 PM62.6 °F42.8 °F48 %30.04 in6.2 miSSW (210°)13.8 mphScattered Clouds
12:50 PM62.6 °F42.8 °F48 %30.04 in6.2 miSW (230°)13.8 mphScattered Clouds
1:20 PM59.0 °F48.2 °F67 %30.06 in6.2 miSW (230°)16.1 mphRainLight Rain Showers
1:50 PM60.8 °F46.4 °F59 %30.06 in6.2 miWSW (240°)12.7 mphPartly Cloudy
2:20 PM60.8 °F44.6 °F55 %30.06 in6.2 miWSW (250°)16.1 mphPartly Cloudy
2:50 PM62.6 °F44.6 °F52 %30.06 in6.2 miWSW (240°)13.8 mphPartly Cloudy
3:20 PM60.8 °F48.2 °F63 %30.06 in6.2 miSW (230°)10.4 mphScattered Clouds
3:50 PM57.2 °F44.6 °F63 %30.06 in6.2 miSSW (200°)15.0 mphScattered Clouds
4:20 PM59.0 °F48.2 °F67 %30.06 in6.2 miSSW (210°)13.8 mphScattered Clouds
4:50 PM55.4 °F48.2 °F77 %30.06 in6.2 miSW (220°)15.0 mphRainLight Rain Showers
5:20 PM57.2 °F46.4 °F67 %30.06 in6.2 miSW (220°)10.4 mphPartly Cloudy
5:50 PM57.2 °F46.4 °F67 %30.06 in6.2 miSSW (210°)12.7 mphPartly Cloudy
6:20 PM57.2 °F46.4 °F67 %30.04 in6.2 miSSW (210°)10.4 mphPartly Cloudy
6:50 PM57.2 °F46.4 °F67 %30.04 in6.2 miSSW (210°)9.2 mphPartly Cloudy
7:20 PM57.2 °F48.2 °F72 %30.04 in6.2 miSW (230°)8.1 mphPartly Cloudy
7:50 PM55.4 °F50.0 °F82 %30.04 in6.2 miSW (220°)8.1 mphPartly Cloudy
8:20 PM55.4 °F50.0 °F82 %30.06 inSW (220°)8.1 mphClear
8:50 PM55.4 °F50.0 °F82 %30.06 inSW (230°)8.1 mphClear
9:20 PM55.4 °F50.0 °F82 %30.06 inSW (230°)5.8 mphClear
9:50 PM53.6 °F48.2 °F82 %30.06 inSW (220°)4.6 mphClear
10:20 PM53.6 °F48.2 °F82 %30.06 in6.2 miSW (230°)4.6 mph
10:50 PM53.6 °F48.2 °F82 %30.06 in6.2 miSW (220°)5.8 mph
11:20 PM53.6 °F48.2 °F82 %30.06 in6.2 miSW (220°)5.8 mph
11:50 PM53.6 °F48.2 °F82 %30.06 in6.2 miWSW (240°)6.9 mph
Hourly data recorded from EGLC, located miles away from Leamouth, England







STORIES FROM OUR PARTNERS